Kelso, WA

12:36 PM PST on December 04, 2016 (GMT -0800)
Kelso-Longview

Weather History for KKLS - March, 2014

Change the Weather History Date:

Friday, March 21, 2014

  Actual Average Record
Temperature  
Mean Temperature 42 °F -  
Max Temperature 55 °F 53 °F 69 °F (2004)
Min Temperature 30 °F 38 °F 28 °F (2007)
Degree Days  
Heating Degree Days 22    
Moisture  
Dew Point 30 °F    
Average Humidity 65    
Maximum Humidity 93    
Minimum Humidity 33    
Precipitation  
Precipitation 0.00 in - - ()
Sea Level Pressure  
Sea Level Pressure 30.33 in    
Wind  
Wind Speed 4 mph (NNW)    
Max Wind Speed 14 mph    
Max Gust Speed 18 mph    
Visibility 10 miles    
Events      
Averages and records for this station are not official NWS values.
T = Trace of Precipitation, MM = Missing Value Source: NWS Daily Summary

Daily Weather History Graph

Daily Weather History Graph

Search for Another Location

Airport or City:

Trip Planner

Search our weather history database for the weather conditions in past years. The results will help you decide how hot, cold, wet, or windy it might be!

Date:

Astronomy

Mar. 21, 2014 Rise Set
Actual Time 7:12 AM PDT 7:25 PM PDT
Civil Twilight 6:42 AM PDT 7:55 PM PDT
Nautical Twilight 6:07 AM PDT 8:30 PM PDT
Astronomical Twilight 5:31 AM PDT 9:07 PM PDT
Moon 12:04 AM PDT (3/21) 9:53 AM PDT (3/21)
Length of Visible Light 13h 13m
Length of Day
12h 13m
Waning Gibbous, 74% of the Moon is Illuminated
Mar 21
Waning Gibbous
Mar 23
Last Quarter
Mar 30
New
Apr 7
First Quarter
Apr 15
Full

Hourly Weather History & Observations

Time (PDT) Temp. Windchill Dew Point Humidity Pressure Visibility Wind Dir Wind Speed Gust Speed Precip Events Conditions
12:15 AM 35.6 °F - 32.0 °F 87% 30.41 in 10.0 mi Calm Calm - N/A   Overcast
12:35 AM 35.6 °F - 32.0 °F 87% 30.40 in 10.0 mi Calm Calm - N/A   Overcast
12:55 AM 35.6 °F - 30.2 °F 81% 30.40 in 10.0 mi Calm Calm - N/A   Scattered Clouds
1:15 AM 33.8 °F - 30.2 °F 87% 30.40 in 10.0 mi Calm Calm - N/A   Clear
1:35 AM 33.8 °F - 30.2 °F 87% 30.40 in 10.0 mi Calm Calm - N/A   Clear
1:55 AM 33.8 °F - 28.4 °F 81% 30.39 in 10.0 mi Calm Calm - N/A   Clear
2:15 AM 32.0 °F - 28.4 °F 87% 30.40 in 10.0 mi Calm Calm - N/A   Clear
2:35 AM 33.8 °F - 28.4 °F 81% 30.39 in 10.0 mi Calm Calm - N/A   Clear
2:55 AM 32.0 °F - 28.4 °F 87% 30.37 in 10.0 mi Calm Calm - N/A   Partly Cloudy
3:15 AM 32.0 °F - 28.4 °F 87% 30.37 in 10.0 mi Calm Calm - N/A   Partly Cloudy
3:35 AM 32.0 °F - 28.4 °F 87% 30.36 in 10.0 mi Calm Calm - N/A   Scattered Clouds
3:55 AM 32.0 °F - 28.4 °F 87% 30.37 in 10.0 mi Calm Calm - N/A   Partly Cloudy
4:15 AM 30.2 °F - 28.4 °F 93% 30.37 in 10.0 mi Calm Calm - N/A   Clear
4:35 AM 32.0 °F - 28.4 °F 87% 30.36 in 10.0 mi Calm Calm - N/A   Scattered Clouds
4:55 AM 32.0 °F 26.4 °F 28.4 °F 87% 30.36 in 1.5 mi NNW 5.8 mph - N/A   Overcast
5:15 AM 32.0 °F - 28.4 °F 87% 30.36 in 1.5 mi Calm Calm - N/A   Overcast
5:35 AM 32.0 °F 27.5 °F 28.4 °F 87% 30.36 in 10.0 mi North 4.6 mph - N/A   Overcast
5:55 AM 32.0 °F - 28.4 °F 87% 30.35 in 10.0 mi Calm Calm - N/A   Mostly Cloudy
6:15 AM 32.0 °F 28.7 °F 28.4 °F 87% 30.35 in 10.0 mi NNW 3.5 mph - N/A   Overcast
6:35 AM 33.8 °F 30.8 °F 28.4 °F 81% 30.35 in 10.0 mi NNW 3.5 mph - N/A   Overcast
6:55 AM 32.0 °F 26.4 °F 28.4 °F 87% 30.35 in 10.0 mi NNW 5.8 mph - N/A   Overcast
7:15 AM 32.0 °F 28.7 °F 28.4 °F 87% 30.35 in 10.0 mi NNW 3.5 mph - N/A   Overcast
7:35 AM 33.8 °F 29.6 °F 28.4 °F 81% 30.36 in 10.0 mi NNW 4.6 mph - N/A   Overcast
7:55 AM 33.8 °F 28.6 °F 30.2 °F 87% 30.36 in 10.0 mi NNE 5.8 mph - N/A   Overcast
8:15 AM 33.8 °F 28.6 °F 30.2 °F 87% 30.36 in 10.0 mi NNW 5.8 mph - N/A   Mostly Cloudy
8:35 AM 35.6 °F 30.7 °F 30.2 °F 81% 30.35 in 10.0 mi North 5.8 mph - N/A   Mostly Cloudy
8:55 AM 35.6 °F 31.7 °F 30.2 °F 81% 30.35 in 10.0 mi NW 4.6 mph - N/A   Mostly Cloudy
9:15 AM 37.4 °F 32.8 °F 33.8 °F 87% 30.35 in 10.0 mi NW 5.8 mph - N/A   Partly Cloudy
9:35 AM 37.4 °F 30.8 °F 32.0 °F 81% 30.35 in 10.0 mi North 9.2 mph - N/A   Clear
9:55 AM 39.2 °F 33.0 °F 33.8 °F 81% 30.35 in 10.0 mi North 9.2 mph - N/A   Clear
10:15 AM 41.0 °F 34.3 °F 33.8 °F 76% 30.34 in 10.0 mi North 11.5 mph - N/A   Clear
10:35 AM 42.8 °F 37.0 °F 33.8 °F 70% 30.34 in 10.0 mi North 10.4 mph - N/A   Clear
10:55 AM 42.8 °F 37.0 °F 33.8 °F 70% 30.34 in 10.0 mi NNW 10.4 mph - N/A   Clear
11:15 AM 44.6 °F 38.4 °F 33.8 °F 66% 30.34 in 10.0 mi NNW 12.7 mph 16.1 mph N/A   Clear
11:35 AM 46.4 °F 41.1 °F 33.8 °F 62% 30.34 in 10.0 mi NNW 11.5 mph - N/A   Clear
11:55 AM 46.4 °F 41.1 °F 33.8 °F 62% 30.33 in 10.0 mi NNW 11.5 mph - N/A   Clear
12:15 PM 48.2 °F - 35.6 °F 62% 30.33 in 10.0 mi NW 5.8 mph - N/A   Clear
12:35 PM 50.0 °F - 33.8 °F 54% 30.32 in 10.0 mi NNW 9.2 mph 17.3 mph N/A   Clear
12:55 PM 51.8 °F - 33.8 °F 50% 30.32 in 10.0 mi North 9.2 mph 16.1 mph N/A   Clear
1:15 PM 51.8 °F - 33.8 °F 50% 30.31 in 10.0 mi NW 10.4 mph 16.1 mph N/A   Clear
1:35 PM 53.6 °F - 33.8 °F 47% 30.31 in 10.0 mi NNW 10.4 mph 18.4 mph N/A   Partly Cloudy
1:55 PM 53.6 °F - 33.8 °F 47% 30.31 in 10.0 mi North 12.7 mph 17.3 mph N/A   Partly Cloudy
2:15 PM 53.6 °F - 33.8 °F 47% 30.30 in 10.0 mi NNW 13.8 mph 18.4 mph N/A   Clear
2:35 PM 53.6 °F - 30.2 °F 41% 30.30 in 10.0 mi North 10.4 mph 16.1 mph N/A   Clear
2:55 PM 53.6 °F - 32.0 °F 44% 30.29 in 10.0 mi North 6.9 mph - N/A   Clear
3:15 PM 53.6 °F - 30.2 °F 41% 30.29 in 10.0 mi NW 8.1 mph - N/A   Clear
3:35 PM 55.4 °F - 30.2 °F 38% 30.28 in 10.0 mi NW 10.4 mph - N/A   Clear
3:55 PM 55.4 °F - 30.2 °F 38% 30.28 in 10.0 mi NNW 10.4 mph 18.4 mph N/A   Clear
4:15 PM 55.4 °F - 28.4 °F 36% 30.28 in 10.0 mi NNW 10.4 mph 17.3 mph N/A   Clear
4:35 PM 55.4 °F - 28.4 °F 36% 30.28 in 10.0 mi NNW 6.9 mph - N/A   Clear
4:55 PM 55.4 °F - 28.4 °F 36% 30.28 in 10.0 mi NNW 9.2 mph - N/A   Clear
5:15 PM 55.4 °F - 26.6 °F 33% 30.28 in 10.0 mi North 11.5 mph 18.4 mph N/A   Clear
5:35 PM 53.6 °F - 28.4 °F 38% 30.28 in 10.0 mi NNW 10.4 mph - N/A   Clear
5:55 PM 53.6 °F - 28.4 °F 38% 30.28 in 10.0 mi North 10.4 mph - N/A   Clear
6:15 PM 53.6 °F - 28.4 °F 38% 30.28 in 10.0 mi NNW 12.7 mph - N/A   Clear
6:35 PM 51.8 °F - 28.4 °F 41% 30.29 in 10.0 mi NNW 12.7 mph 17.3 mph N/A   Clear
6:55 PM 51.8 °F - 28.4 °F 41% 30.29 in 10.0 mi NNW 10.4 mph 16.1 mph N/A   Clear
7:15 PM 51.8 °F - 26.6 °F 38% 30.29 in 10.0 mi NNW 11.5 mph - N/A   Clear
7:35 PM 48.2 °F - 26.6 °F 43% 30.29 in 10.0 mi NNW 5.8 mph - N/A   Clear
7:55 PM 48.2 °F - 26.6 °F 43% 30.29 in 10.0 mi NNW 3.5 mph - N/A   Clear
8:15 PM 46.4 °F 45.2 °F 26.6 °F 46% 30.30 in 10.0 mi NNW 3.5 mph - N/A   Clear
8:35 PM 44.6 °F - 28.4 °F 53% 30.30 in 10.0 mi Calm Calm - N/A   Clear
8:55 PM 44.6 °F - 28.4 °F 53% 30.30 in 10.0 mi Calm Calm - N/A   Clear
9:15 PM 44.6 °F - 28.4 °F 53% 30.31 in 10.0 mi Calm Calm - N/A   Clear
9:35 PM 44.6 °F - 26.6 °F 49% 30.32 in 10.0 mi Calm Calm - N/A   Clear
9:55 PM 42.8 °F - 28.4 °F 57% 30.32 in 10.0 mi Calm Calm - N/A   Clear
10:15 PM 42.8 °F 41.1 °F 26.6 °F 53% 30.32 in 10.0 mi NNW 3.5 mph - N/A   Clear
10:35 PM 41.0 °F - 26.6 °F 57% 30.32 in 10.0 mi Calm Calm - N/A   Clear
10:55 PM 39.2 °F - 26.6 °F 61% 30.33 in 10.0 mi Calm Calm - N/A   Clear
11:15 PM 39.2 °F - 26.6 °F 61% 30.33 in 10.0 mi Calm Calm - N/A   Clear
11:35 PM 39.2 °F - 26.6 °F 61% 30.33 in 10.0 mi Calm Calm - N/A   Clear
11:55 PM 37.4 °F 34.9 °F 26.6 °F 65% 30.33 in 10.0 mi NW 3.5 mph - N/A   Clear